This is the latest recevied weather packets stored in our database for station/object VE3VGJ. If no packets are shown the sender has not sent any weather packets the latest 10 day(s).
| Time | Temp. | Humidity | Pressure | Rain* | Wind** | Luminosity | Snow |
|---|---|---|---|---|---|---|---|
| 1777728262 | 4.44° C | 70% | 1014.7 hPa | 0 mm | - | 152 W/m² | - |
| 1777727959 | 4.44° C | 71% | 1014.5 hPa | 0 mm | - | 228 W/m² | - |
| 1777727656 | 4.44° C | 71% | 1014.6 hPa | 0 mm | - | 311 W/m² | - |
| 1777727353 | 4.44° C | 71% | 1014.6 hPa | 0 mm | - | 263 W/m² | - |
| 1777727050 | 3.89° C | 72% | 1014.8 hPa | 0 mm | - | 222 W/m² | - |
| 1777726748 | 3.89° C | 72% | 1014.7 hPa | 0 mm | - | 217 W/m² | - |
| 1777726445 | 3.89° C | 73% | 1014.7 hPa | 0 mm | - | 178 W/m² | - |
| 1777726141 | 3.89° C | 72% | 1014.9 hPa | 0 mm | - | 140 W/m² | - |
| 1777725838 | 3.89° C | 73% | 1014.6 hPa | 0 mm | - | 149 W/m² | - |
| 1777725536 | 3.89° C | 72% | 1014.7 hPa | 0 mm | - | 134 W/m² | - |
| 1777725233 | 3.89° C | 72% | 1014.7 hPa | 0 mm | - | 122 W/m² | - |
| 1777724931 | 3.89° C | 72% | 1014.6 hPa | 0 mm | - | 130 W/m² | - |
| 1777724626 | 3.89° C | 73% | 1014.9 hPa | 0 mm | - | 111 W/m² | - |
| 1777724325 | 3.89° C | 73% | 1014.7 hPa | 0 mm | - | 120 W/m² | - |
| 1777724022 | 3.33° C | 74% | 1014.7 hPa | 0 mm | - | 129 W/m² | - |
| 1777723719 | 3.33° C | 74% | 1014.5 hPa | 0 mm | - | 129 W/m² | - |
| 1777723415 | 3.33° C | 74% | 1014.5 hPa | 0 mm | - | 126 W/m² | - |
| 1777723112 | 3.33° C | 75% | 1014.5 hPa | 0 mm | - | 128 W/m² | - |
| 1777722810 | 2.78° C | 75% | 1014.7 hPa | 0 mm | - | 143 W/m² | - |
| 1777722506 | 2.78° C | 76% | 1014.6 hPa | 0 mm | - | 103 W/m² | - |
| 1777722203 | 2.22° C | 77% | 1014.6 hPa | 0 mm | - | 78 W/m² | - |
| 1777721900 | 2.22° C | 77% | 1014.7 hPa | 0 mm | - | 70 W/m² | - |
| 1777721597 | 2.22° C | 76% | 1014.6 hPa | 0 mm | - | 68 W/m² | - |
| 1777721296 | 2.22° C | 76% | 1014.5 hPa | 0 mm | - | 57 W/m² | - |
| 1777720993 | 2.78° C | 76% | 1014.6 hPa | 0 mm | - | 78 W/m² | - |
* Rain latest hour (hover to see other rain measurements)
** Current wind speed in m/s (hover to see current wind gust speed)